Terminal Aerodrome Forecast
Issued by NWS

Home | Current Version | Previous Version | Text Only | Print | Product List | Glossary On
Versions: 1 2 3 4 5 6 7 8 9 10 11 12 13
000
FTUS41 KPBZ 040529
TAFDUJ
TAF
KDUJ 040529Z 0406/0506 20005KT P6SM SCT250 WS010/22030KT
     FM041600 23012G20KT P6SM SCT060 BKN250
     FM050500 22007KT P6SM -SHRA OVC050=

USA.gov is the U.S. government's official web portal to all federal, state and local government web resources and services.